STARLINK-35660

Last updated on Fri Dec 19 2025 00:02:09 GMT+0000 (Coordinated Universal Time)

1 67003U 25293A 25351.83335648 -.00948175 28832-3 -21949-2 0 9992 2 67003 69.9938 309.0388 0004128 267.0417 109.6865 15.96949357 2381
UTC large
Height (km)
Speed (km/s)
/
Latitude / Longitude
Inclination (degrees)
Orbital Period (minutes)
Azimuth
Elevation
Range (km)
Doppler Factor

Next 0 passes for location: London (51.5072 / 0.1276)

Sorry there are no passes over London.